EW4055 Weather Reports


Display with metric or nautical units.
time (UTC)temp
F
wind
direction
speed
MPH
gust
MPH
rain 1hr
in
rain 24hr
in
rain mn
in
humidity
%
barometer
mb
20260902040410 73 289 4.0 6.0 0.00 0.00 0.00 56 1017.9
20260902035410 73 289 5.0 9.0 0.00 0.00 0.00 55 1018.0
20260902034408 73 303 5.0 7.0 0.00 0.00 0.00 55 1017.9
20260902033409 73 289 5.0 6.0 0.00 0.00 0.00 55 1017.9
20260902032411 74 298 5.0 5.0 0.00 0.00 0.00 55 1017.9
20260902031412 74 290 4.0 5.0 0.00 0.00 0.00 54 1018.1
20260902030406 74 271 4.0 6.0 0.00 0.00 0.00 54 1018.1
20260902030257 74 285 4.0 6.0 0.00 0.00 0.00 53 1018.0
20260902025140 74 285 5.0 6.0 0.00 0.00 0.00 54 1018.1
20260902023407 74 288 5.0 9.0 0.00 0.00 0.00 54 1018.1
20260902022825 75 286 4.0 9.0 0.00 0.00 0.00 55 1018.1
20260902022519 74 281 6.0 10.0 0.00 0.00 0.00 55 1018.2
20260902020406 75 285 5.0 7.0 0.00 0.00 0.00 55 1018.2
20260902015406 75 290 5.0 10.0 0.00 0.00 0.00 56 1018.0
20260902014407 76 302 6.0 12.0 0.00 0.00 0.00 54 1018.1
20260902013406 75 283 6.0 10.0 0.00 0.00 0.00 54 1018.1
20260902012404 74 302 6.0 9.0 0.00 0.00 0.00 55 1018.0
20260902011405 74 317 4.0 6.0 0.00 0.00 0.00 56 1018.0
20260902010403 75 289 2.0 4.0 0.00 0.00 0.00 56 1017.9
20260902005403 74 288 4.0 5.0 0.00 0.00 0.00 58 1018.0
20260902004407 74 238 2.0 3.0 0.00 0.00 0.00 57 1017.9
20260902003404 74 228 2.0 4.0 0.00 0.00 0.00 57 1018.0
20260902002403 74 219 3.0 6.0 0.00 0.00 0.00 58 1018.0
20260902002147 74 285 2.0 3.0 0.00 0.00 0.00 58 1018.1
20260902000406 75 283 2.0 4.0 0.00 0.00 0.00 58 1018.2
20260901235404 74 283 3.0 4.0 0.00 0.00 0.00 58 1018.2
20260901234402 74 266 3.0 4.0 0.00 0.00 0.00 59 1018.2
20260901233401 74 264 2.0 3.0 0.00 0.00 0.00 61 1018.2
20260901232400 74 258 1.0 3.0 0.00 0.00 0.00 67 1018.3
20260901232132 74 262 2.0 4.0 0.00 0.00 0.00 68 1018.2
20260901230400 74 261 3.0 5.0 0.00 0.00 0.00 73 1018.3
20260901225401 75 237 2.0 5.0 0.00 0.00 0.00 76 1018.6
20260901224358 74 288 1.0 4.0 0.00 0.00 0.00 75 1018.5
20260901224135 75 265 2.0 3.0 0.00 0.00 0.00 77 1018.5
20260901222400 75 283 3.0 7.0 0.00 0.00 0.00 77 1018.4
20260901221404 75 300 4.0 6.0 0.00 0.00 0.00 77 1018.3
20260901220358 74 286 3.0 4.0 0.00 0.00 0.00 77 1018.2
20260901215358 74 300 2.0 4.0 0.00 0.00 0.00 76 1018.3
20260901215121 75 265 2.0 4.0 0.00 0.00 0.00 76 1018.4
20260901213354 75 317 2.0 3.0 0.00 0.00 0.00 75 1018.3
20260901212949 76 226 0.0 3.0 0.00 0.00 0.00 74 1018.0
20260901211401 76 226 1.0 2.0 0.00 0.00 0.00 74 1018.1
20260901210952 76 137 0.0 0.0 0.00 0.00 0.00 73 1018.1
20260901205955 76 137 0.0 0.0 0.00 0.00 0.00 74 1018.1
20260901204351 76 137 0.0 0.0 0.00 0.00 0.00 73 1018.2
20260901203352 76 137 0.0 0.0 0.00 0.00 0.00 72 1018.1
20260901202354 77 137 1.0 2.0 0.00 0.00 0.00 72 1018.1
20260901201357 77 137 1.0 2.0 0.00 0.00 0.00 72 1018.0
20260901200351 77 137 1.0 3.0 0.00 0.00 0.00 71 1017.9
20260901200148 77 135 2.0 3.0 0.00 0.00 0.00 71 1017.9
20260901194350 78 97 0.0 3.0 0.00 0.00 0.00 71 1018.0
20260901193347 78 110 2.0 3.0 0.00 0.00 0.00 70 1017.9
20260901192345 78 94 2.0 4.0 0.00 0.00 0.00 70 1017.8
20260901191346 78 100 2.0 4.0 0.00 0.00 0.00 70 1017.8
20260901190346 79 97 3.0 5.0 0.00 0.00 0.00 69 1017.7
20260901185346 79 87 3.0 5.0 0.00 0.00 0.00 69 1017.7
20260901184343 79 102 4.0 6.0 0.00 0.00 0.00 68 1017.6
20260901183347 80 106 4.0 6.0 0.00 0.00 0.00 68 1017.5
20260901182342 80 87 5.0 7.0 0.00 0.00 0.00 67 1017.3
20260901181342 80 97 5.0 7.0 0.00 0.00 0.00 66 1017.2
20260901180344 80 87 5.0 7.0 0.00 0.00 0.00 65 1017.1
20260901175344 81 87 4.0 9.0 0.00 0.00 0.00 65 1017.1
20260901174344 81 85 6.0 7.0 0.00 0.00 0.00 65 1016.9
20260901173343 81 117 4.0 6.0 0.00 0.00 0.00 64 1016.8
20260901172341 82 104 4.0 9.0 0.00 0.00 0.00 64 1016.8
20260901171340 82 86 5.0 10.0 0.00 0.00 0.00 64 1016.9
20260901170341 82 100 5.0 10.0 0.00 0.00 0.00 63 1016.9
20260901170252 83 97 4.0 7.0 0.00 0.00 0.00 62 1016.9
20260901164339 83 102 4.0 10.0 0.00 0.00 0.00 61 1017.1
20260901163341 83 111 4.0 9.0 0.00 0.00 0.00 62 1017.1
20260901162343 84 94 6.0 11.0 0.00 0.00 0.00 63 1016.9
20260901162119 84 82 7.0 12.0 0.00 0.00 0.00 62 1016.9
20260901160337 85 92 4.0 13.0 0.00 0.00 0.00 61 1016.9
20260901155338 85 102 7.0 10.0 0.00 0.00 0.00 61 1016.9
20260901154354 85 93 4.0 11.0 0.00 0.00 0.00 61 1016.9
20260901153333 85 79 5.0 12.0 0.00 0.00 0.00 61 1016.9
20260901152335 86 99 6.0 13.0 0.00 0.00 0.00 60 1016.8
20260901151334 86 99 7.0 12.0 0.00 0.00 0.00 61 1016.8
20260901150337 87 90 6.0 15.0 0.00 0.00 0.00 61 1016.8
20260901145331 87 144 6.0 16.0 0.00 0.00 0.00 61 1016.7
20260901145054 87 82 9.0 15.0 0.00 0.00 0.00 61 1016.6
20260901143333 88 73 7.0 13.0 0.00 0.00 0.00 60 1016.7
20260901142337 88 90 7.0 13.0 0.00 0.00 0.00 60 1016.8
20260901141334 88 97 6.0 14.0 0.00 0.00 0.00 60 1016.7
20260901140336 87 59 4.0 13.0 0.00 0.00 0.00 60 1016.7
20260901135334 88 79 10.0 18.0 0.00 0.00 0.00 60 1016.6
20260901135103 88 78 7.0 16.0 0.00 0.00 0.00 59 1016.6
20260901133331 88 7 8.0 15.0 0.00 0.00 0.00 59 1016.7
20260901133107 88 75 7.0 15.0 0.00 0.00 0.00 57 1016.8
20260901131331 89 39 8.0 13.0 0.00 0.00 0.00 56 1016.8
20260901130333 88 24 8.0 15.0 0.00 0.00 0.00 55 1016.8
20260901125332 89 71 8.0 15.0 0.00 0.00 0.00 53 1016.9
20260901124331 89 68 7.0 17.0 0.00 0.00 0.00 50 1017.1
20260901123332 89 358 8.0 16.0 0.00 0.00 0.00 51 1017.1
20260901122334 91 45 7.0 15.0 0.00 0.00 0.00 51 1017.2
20260901122111 91 93 2.0 6.0 0.00 0.00 0.00 45 1017.2
20260901120329 91 44 4.0 6.0 0.00 0.00 0.00 42 1017.4
20260901115331 91 0 2.0 6.0 0.00 0.00 0.00 43 1017.5
20260901114331 90 61 5.0 9.0 0.00 0.00 0.00 43 1017.5
20260901113329 90 86 3.0 10.0 0.00 0.00 0.00 44 1017.5
20260901112328 90 72 4.0 9.0 0.00 0.00 0.00 44 1017.6
20260901111328 90 0 2.0 5.0 0.00 0.00 0.00 43 1017.8
20260901110331 90 333 3.0 7.0 0.00 0.00 0.00 44 1017.8
20260901110250 89 86 3.0 6.0 0.00 0.00 0.00 44 1017.8
20260901104326 89 52 5.0 10.0 0.00 0.00 0.00 45 1017.9
20260901103812 89 75 1.0 4.0 0.00 0.00 0.00 47 1018.0
20260901103445 90 55 3.0 6.0 0.00 0.00 0.00 45 1017.9
20260901101329 88 0 1.0 7.0 0.00 0.00 0.00 46 1018.0
20260901100328 88 104 3.0 6.0 0.00 0.00 0.00 46 1018.1
20260901095321 88 80 3.0 6.0 0.00 0.00 0.00 45 1018.2
20260901094319 89 80 1.0 4.0 0.00 0.00 0.00 42 1018.2
20260901093322 89 337 2.0 4.0 0.00 0.00 0.00 45 1018.3
20260901092320 88 321 2.0 4.0 0.00 0.00 0.00 46 1018.3
20260901091323 87 25 2.0 4.0 0.00 0.00 0.00 45 1018.3
20260901090957 86 295 3.0 6.0 0.00 0.00 0.00 47 1018.3
20260901085318 85 227 2.0 5.0 0.00 0.00 0.00 50 1018.4
20260901084320 84 285 2.0 5.0 0.00 0.00 0.00 49 1018.4
20260901083319 84 290 2.0 6.0 0.00 0.00 0.00 50 1018.4
20260901082319 83 310 2.0 9.0 0.00 0.00 0.00 51 1018.3
20260901081319 82 324 4.0 7.0 0.00 0.00 0.00 51 1018.3
20260901080320 82 282 1.0 4.0 0.00 0.00 0.00 51 1018.2
20260901075318 81 319 4.0 7.0 0.00 0.00 0.00 53 1018.2
20260901075212 80 306 3.0 6.0 0.00 0.00 0.00 57 1018.0
20260901075158 80 285 3.0 6.0 0.00 0.00 0.00 57 1018.0
20260901074338 81 281 2.0 6.0 0.00 0.00 0.00 56 1018.1
20260901071313 79 305 4.0 9.0 0.00 0.00 0.00 57 1017.9
20260901070312 79 289 3.0 6.0 0.00 0.00 0.00 55 1017.9
20260901065313 78 282 3.0 7.0 0.00 0.00 0.00 56 1017.9
20260901064313 77 293 2.0 5.0 0.00 0.00 0.00 58 1017.8
20260901063311 77 306 2.0 5.0 0.00 0.00 0.00 59 1017.7
20260901062310 76 298 4.0 7.0 0.00 0.00 0.00 59 1017.7
20260901061307 76 309 3.0 6.0 0.00 0.00 0.00 59 1017.6
20260901060306 76 309 3.0 6.0 0.00 0.00 0.00 59 1017.6
20260901055306 76 310 3.0 6.0 0.00 0.00 0.00 58 1017.5
20260901055050 76 286 5.0 7.0 0.00 0.00 0.00 57 1017.4
20260901054201 76 289 2.0 4.0 0.00 0.00 0.00 55 1017.2
20260901053326 76 307 3.0 4.0 0.00 0.00 0.00 57 1017.4
20260901052418 76 300 2.0 7.0 0.00 0.00 0.00 56 1017.4
20260901050304 76 289 3.0 5.0 0.00 0.00 0.00 55 1016.9
20260901045306 76 279 4.0 5.0 0.00 0.00 0.00 55 1016.8
20260901044742 76 283 4.0 5.0 0.00 0.00 0.00 55 1016.7
20260901044421 76 279 3.0 5.0 0.00 0.00 0.00 55 1016.7
20260901042301 76 274 4.0 6.0 0.00 0.00 0.00 55 1016.6